Погода в Тепике

Мексика     21°30′14″N   104°53′39″W
темп.,
°C
ветер,
м/с
пор.,
м/с
влажн.,
%
обл.,
%
осадки,
мм/ч
давл.,
гПа
погр.,
м
25 февраля, чт
чт2523:00+18юв1151100 0.0 101623
02:00+19в2242100 0.0 101433
05:00+20вюв2234100 0.0 101427
08:00+23зюз113299 0.0 1015143
11:00+30зсз222280 0.0 1015871
14:00+31зсз3325100 0.0 1011852
17:00+25з2245100 0.0 1011279
20:00+17юв117189 0.0 101323
26 февраля, пт
пт2623:00+19юв124695 0.0 101423
02:00+18юв1233100 0.0 101327
05:00+18юв1231100 0.0 101324
08:00+23ююз1129100 0.0 101492
11:00+30зсз211896 0.0 1014862
14:00+31зсз321989 0.0 10101048
17:00+26зсз123595 0.0 1010223
20:00+19в2250100 0.0 101228
27 февраля, сб
сб2723:00+19юв1237100 0.0 101223
02:00+19вюв1132100 0.0 101123
05:00+19вюв2228100 0.0 101125
08:00+23сз0026100 0.0 101241
11:00+31сз2117100 0.0 1012938
14:00+30з332610 0.0 1009954
17:00+25зсз22405 0.0 1010416
20:00+17вюв12650 0.0 101423
28 февраля, вс
вс2823:00+17вюв124610 0.0 101524
02:00+17вюв113924 0.0 101423
05:00+17в124143 0.0 101323
08:00+22в1133100 0.0 101579
11:00+31сз2218100 0.0 10131021
14:00+32зсз3317100 0.0 10111545
17:00+26зсз233462 0.0 1011459
20:00+17в125342 0.0 101423
1 марта, пн
пн123:00+17в123455 0.0 101424
02:00+18вюв222884 0.0 101327
05:00+18вюв222883 0.0 101326
08:00+24в1222100 0.0 101396
11:00+31сз321560 0.0 10121099
14:00+32сз331717 0.0 10091232
17:00+26сз243314 0.0 1009529
20:00+18в12480 0.0 101224